GFSGBSN_850_dewp_159.txt.gz
Dewpoint
10 10 10 10 10 10 9 9 9 10 10 10 10 10 9 9 8 8 8 8 7 7 7 6 2 3 1 3 3 -1 1 -6 -8 -8 -8 -8 -8 -8 -7 -11 -11 -11 -12 -15 -14 -12 -12
10 10 10 10 10 10 10 10 10 9 10 10 10 10 10 10 9 9 9 8 8 7 5 5 1 -2 3 -1 1 3 3 -2 -6 -7 -7 -7 -7 -8 -8 -7 -8 -9 -11 -12 -13 -13 -11
10 10 10 10 10 10 10 9 11 10 10 10 10 10 10 10 9 9 9 8 7 4 1 2 -3 0 2 -1 1 1 0 -3 -6 -6 -6 -6 -7 -7 -7 -6 -9 -10 -8 -8 -11 -12 -12
9 10 10 10 10 10 10 10 10 10 10 10 9 8 8 8 8 8 7 6 2 -0 -1 -4 -6 1 0 -1 -1 2 2 -2 -5 -6 -6 -7 -7 -8 -7 -8 -9 -7 -7 -4 -6 -12 -12
7 8 9 8 9 9 9 9 9 9 7 6 6 6 6 6 6 5 3 3 -0 -2 -3 -6 -4 4 -1 2 2 -3 -2 -3 -5 -6 -6 -8 -7 -7 -8 -7 -5 -7 -4 -4 -7 -11 -11
1 3 4 3 4 5 4 4 6 7 5 5 2 2 3 2 3 3 -2 -3 -4 -5 1 2 3 3 2 -3 -2 -3 -4 -5 -5 -5 -6 -6 -6 -5 -6 -6 -3 -6 -7 -8 -7 -10 -11
1 3 2 2 -1 3 4 3 3 5 -1 -1 -2 -1 -2 -3 -2 -3 -3 3 4 7 4 -3 -1 -2 -1 -3 -3 -6 -6 -5 -5 -5 -2 -5 -3 -2 -4 -6 -7 -9 -8 -7 -9 -11 -9
2 2 3 2 3 3 3 3 1 -2 -4 -6 -6 -5 -5 -5 -4 -4 -3 3 1 4 -3 -4 -2 -3 -2 1 1 -2 -8 -8 -8 -5 -6 -3 -1 -3 -3 -3 -4 -3 -3 -3 -5 -7 -7
3 2 1 3 2 3 3 2 -1 -1 -4 -4 -7 -7 -7 -6 -5 -4 3 2 3 1 -3 -7 -5 -4 -5 -3 -2 -6 -6 -8 -7 -5 -5 -3 -4 -4 -3 -2 -1 -1 -1 -1 -2 -5 -7
2 2 1 2 3 3 3 3 3 2 1 -4 -4 -9 -11 -10 -8 1 3 2 0 -6 0 -6 -5 -2 -1 -2 -4 -4 -6 -6 -7 -5 -5 -3 -5 -4 -2 -1 -2 -0 -4 -3 -2 -1 -0
2 1 1 1 3 3 2 3 2 3 1 -3 -6 -7 -11 -11 4 0 1 2 -6 1 -0 -10 -4 -0 1 -2 -3 -4 -1 -3 -6 -6 -5 -4 -3 -4 -3 -4 -6 -4 -4 -4 -4 -3 -2
3 2 0 1 1 2 2 2 2 2 1 1 0 -1 -5 -6 -1 2 -5 -3 -1 3 -4 -6 -2 -1 -0 -0 -4 -1 -1 -4 -5 -5 -6 -4 -6 -5 -3 -5 -5 -5 -3 -3 -3 -2 3
4 3 1 0 1 1 1 2 1 2 1 -3 1 1 -2 2 0 -6 -6 2 1 1 -14 -5 -3 -1 -2 -2 -3 -7 -3 -2 -5 -4 -4 -5 -5 -6 -5 -3 -4 -3 -2 0 -1 1 1
2 3 2 1 1 1 0 1 1 1 1 -1 1 1 0 3 1 -4 2 0 1 -13 -16 -7 -5 -3 -3 -5 -7 -8 -10 -10 -8 -7 -7 -9 -7 -9 -8 -6 -6 -6 -4 -1 -1 -3 -5
0 1 3 2 1 1 0 -0 0 0 -0 -2 1 1 2 2 -0 -0 1 2 -12 -13 -15 -9 -6 -5 -5 -7 -13 -10 -9 -10 -12 -10 -8 -8 -8 -11 -9 -10 -9 -8 -6 -8 -4 -5 -2
-2 0 1 3 2 1 1 -0 -1 -0 -4 -0 1 2 2 2 2 3 2 -0 -11 -13 -9 -8 -10 -10 -9 -9 -10 -7 -12 -12 -12 -12 -12 -9 -4 -9 -11 -10 -9 -8 -10 -5 -5 0 -1
-6 -2 1 2 3 2 1 0 -0 -1 -3 1 2 1 2 1 3 2 4 -4 -9 -10 -8 -10 -13 -16 -20 -18 -16 -15 -13 -15 -12 -11 -11 -10 -7 -8 -11 -9 -9 -9 -9 -6 -7 -5 -1
-4 -5 0 2 3 1 2 1 0 -1 -1 2 2 0 1 2 3 1 1 -8 -7 -10 -7 -10 -10 -13 -15 -14 -11 -13 -14 -13 -11 -11 -9 -10 -7 -4 -7 -11 -11 -10 -8 -7 -1 -2 -1
-13 -5 -1 1 3 1 1 1 -0 -3 0 1 -0 0 1 2 2 -0 -5 -6 -6 -8 -10 -12 -11 -13 -13 -12 -10 -10 -11 -12 -12 -9 -9 -9 -8 -3 -5 -8 -11 -9 -9 -9 -9 -6 -2
-10 -11 -4 1 2 1 1 1 -0 -4 -1 0 -1 1 1 1 -2 -5 -5 -5 -4 -6 -9 -10 -9 -10 -8 -7 -9 -9 -10 -11 -10 -9 -7 -8 -7 -6 -2 -6 -9 -7 -4 -5 -6 1 2
-6 -9 -8 -4 0 0 1 1 -0 -4 -1 -1 -1 0 -2 2 1 -4 -6 -6 -5 -4 -6 -7 -7 -7 -7 -7 -8 -8 -8 -8 -8 -7 -7 -5 -4 -6 -8 -10 -10 -9 -9 -9 -8 -7 -2
-6 -7 -10 -3 -1 0 0 1 -0 -3 -1 -1 -1 -1 -3 -5 -4 -3 -4 -5 -6 -7 -6 -5 -6 -7 -7 -7 -7 -6 -5 -3 -3 -5 -4 -4 -0 -3 -3 -6 -7 -7 -9 -10 -9 -8 -7
-5 -5 -8 -3 -3 0 0 0 -0 -4 -0 -1 -2 -4 -4 -3 -3 -1 -2 -6 -6 -8 -7 -8 -6 -6 -5 -6 -5 -3 -2 -2 -3 -2 -3 -4 -1 1 3 -3 -3 1 -0 -4 -6 -6 -5
-5 -4 -6 -1 -4 -1 -0 1 0 -4 -2 -2 -2 -3 -5 -1 -2 -2 -5 -5 -5 -6 -5 -6 -6 -5 -6 -2 -0 -2 -3 -3 -2 -2 -3 -1 -1 -1 2 -1 2 0 -4 -4 2 -1 2
-5 -4 -2 -4 -6 0 -0 1 -0 -4 -3 -1 -0 -3 -5 -2 -6 -5 -5 -5 -5 -5 -5 -5 -6 -5 -4 1 3 1 -0 -1 -1 -2 -2 -3 -0 -0 2 -0 -4 -7 -7 -3 -1 -1 -4
-4 -2 -2 -6 0 0 -0 0 -2 -4 -3 -0 -0 -0 -1 -4 -5 -7 -6 -5 -4 -2 -2 -2 -3 -4 -2 2 3 2 1 -3 -4 -5 -4 -3 -1 -0 -1 1 0 -6 -3 -4 -4 1 -3
-2 -2 -4 -3 0 -0 -0 -0 -3 -4 -4 -1 0 -3 0 0 -1 -4 -5 -4 -5 -5 -3 -3 -2 -2 0 3 3 1 0 -5 -2 0 -0 -1 -2 2 2 2 -1 -6 -4 -3 0 1 -2
-2 -2 -1 -2 0 -0 -0 -1 -3 -4 -4 -3 0 -1 0 -1 -2 -2 -3 -3 -5 -4 -1 1 2 2 2 3 2 0 -1 -2 -1 -4 0 -1 0 2 2 3 3 -5 -3 -1 1 -1 -1
-3 -0 1 1 -0 -0 -0 -2 -3 -3 -4 -3 -0 -1 -1 -0 -3 -1 -1 -2 -2 -2 -1 -1 -0 2 2 2 -0 -2 0 -0 -1 -0 -5 2 -2 -0 0 -0 -0 -3 -4 -1 -1 -2 -1

GFSGBSN_850_dewp_165.txt.gz
Dewpoint
10 9 9 9 8 8 8 8 9 9 9 9 9 9 9 9 10 9 9 9 7 7 6 2 -6 -13 -19 -8 -5 -1 -0 -0 3 -5 -5 -5 -5 -5 -4 -5 -5 -5 -7 -8 -12 -14 -13
10 10 10 10 9 9 9 10 10 9 10 9 9 9 9 9 10 9 9 9 7 4 2 -3 -7 -13 -14 -1 -2 -0 -1 -1 -0 -3 -4 -4 -5 -5 -4 -4 -4 -6 -7 -7 -6 -7 -12
9 9 9 10 10 10 10 10 9 9 10 10 10 10 10 10 10 9 9 8 4 1 -0 -5 -8 -6 -11 -21 -9 -2 -1 -1 -0 -2 -3 -3 -5 -5 -5 -3 -4 -4 -5 -6 -6 -6 -7
8 7 8 8 10 10 10 10 10 9 9 10 10 10 10 10 10 9 8 5 3 0 -3 -9 -8 -6 -7 -15 -4 -5 -1 -3 1 0 -3 -4 -4 -5 -4 -4 -5 -3 -3 -2 -5 -5 -5
9 9 9 9 10 10 10 8 7 8 8 9 9 9 9 9 8 6 3 2 1 -5 -9 -10 -9 3 2 0 -0 -1 -1 -2 -2 -1 -4 -4 -5 -5 -4 -3 -3 -3 -0 -2 -3 -6 -9
7 7 7 7 6 6 7 6 3 3 4 5 5 4 6 4 5 4 2 0 -5 -9 -5 1 1 2 -5 -9 -3 -1 -1 -3 -3 -3 -4 -4 -4 -4 -2 -2 1 -1 -3 -5 -6 -8 -9
3 2 4 3 3 4 4 3 5 2 2 3 4 4 5 2 -1 -3 -2 -6 -2 4 6 0 2 -6 -2 -2 -4 -4 -7 -4 -4 -5 -4 -5 -2 -0 -2 -2 -2 -2 -4 -3 -4 -5 -9
4 3 1 2 2 2 2 1 2 2 2 2 1 2 3 -0 -3 -4 -3 -4 -1 2 3 1 1 4 -1 -2 -2 -2 -4 -8 -7 -3 -5 -4 -2 -4 -4 -4 -1 -1 -1 -1 -2 -3 -3
3 3 3 2 3 2 2 2 2 1 1 1 2 2 1 -2 -3 -7 -6 -7 0 3 1 -2 -10 -9 -5 -4 -5 -5 -4 -8 -8 -6 -6 -5 -5 -6 -4 -2 -1 -0 -0 -0 -1 -4 -4
2 2 2 3 2 1 0 2 2 1 2 3 3 2 1 -2 -4 1 -5 -5 3 2 3 -2 -7 -9 -9 -8 -5 -6 -7 -6 -5 -4 -5 -6 -7 -7 -4 -3 -3 -1 -2 -4 -3 -1 1
2 2 2 2 1 2 0 -1 2 2 2 3 3 2 0 -3 1 2 3 3 3 -3 1 -6 -5 -4 -6 -6 -4 -4 -5 -6 -4 -5 -6 -2 -4 -4 -2 -3 -5 -4 -4 -3 -3 -1 -1
2 3 3 2 2 1 1 1 1 2 1 2 3 3 0 -3 2 3 3 2 -2 5 5 -4 -3 -2 -1 -4 -4 -3 -3 -4 -5 -6 -5 -5 -7 -7 -5 -5 -4 -5 -3 -3 -3 -2 2
1 2 2 3 2 1 0 0 0 1 1 1 2 2 -1 -4 3 2 3 -0 5 5 -7 -8 -1 -4 -1 0 -2 -3 -2 -2 -3 -2 -2 -5 -6 -8 -8 -5 -6 -5 -3 2 3 2 3
-1 0 1 3 4 2 1 1 1 1 1 1 1 1 -0 -1 3 2 0 4 5 -3 -9 -12 -7 -3 -0 -2 -1 -4 -3 -3 -4 -5 -5 -6 -4 -6 -7 -5 -3 -3 -3 2 3 2 -1
-3 -2 -1 0 1 3 3 1 1 1 1 1 1 -0 1 -2 2 1 3 4 -1 -5 -10 -9 -10 -1 -1 -3 -6 -3 -6 -7 -9 -7 -5 -6 -7 -9 -8 -9 -8 -8 -5 -7 -4 -4 -1
-5 -4 -4 -2 -1 0 2 3 2 1 0 1 0 -0 0 -1 1 0 4 -1 -3 -9 -11 -8 -5 -3 -1 -3 -7 -11 -9 -11 -11 -13 -11 -9 -5 -9 -9 -9 -9 -8 -8 -4 -3 0 -0
-8 -14 -13 -8 -5 -3 0 2 2 2 2 1 0 0 -1 -0 0 2 1 -0 -6 -7 -11 -6 -5 -4 -6 -5 -6 -5 -7 -12 -13 -11 -11 -9 -6 -6 -10 -7 -7 -7 -5 -5 -5 -1 -1
-10 -7 -11 -13 -13 -7 -3 0 2 1 2 1 -0 1 1 1 2 1 0 -3 -7 -7 -10 -7 -8 -6 -6 -10 -10 -11 -8 -11 -14 -11 -9 -7 -6 -4 -6 -8 -10 -9 -7 -7 -1 -2 -0
-8 -11 -9 -12 -13 -15 -10 -2 1 1 1 1 0 1 2 2 1 1 -2 -3 -5 -5 -8 -9 -9 -11 -10 -8 -8 -10 -9 -12 -11 -10 -6 -6 -4 0 -3 -7 -9 -9 -8 -9 -6 -4 -2
-6 -11 -11 -6 -7 -10 -15 -8 -1 1 0 0 0 1 2 2 1 -1 -0 -2 -2 -6 -6 -7 -9 -9 -8 -9 -9 -9 -8 -11 -10 -7 -9 -8 -5 -2 0 -1 -5 -5 -7 -8 -8 -3 -2
-7 -10 -11 -7 -4 -5 -11 -14 -1 2 1 0 0 1 0 2 1 0 -0 -2 -2 -3 -6 -8 -6 -5 -7 -6 -6 -7 -7 -7 -9 -7 -7 -6 -3 -4 -5 -7 -5 -3 -4 -5 -4 -4 -3
-6 -7 -13 -10 -6 -5 -9 -15 -2 1 2 -0 0 1 -2 -3 -2 0 0 -1 -3 -4 -4 -4 -4 -5 -7 -3 -5 -6 -4 -4 -5 -3 -5 -3 -1 -1 -1 -2 -2 -2 -3 -4 -5 -5 -5
-5 -6 -9 -9 -6 -5 -7 -15 -4 1 -0 -1 0 -0 -0 -3 -1 -0 -1 -1 -3 -3 -1 -4 -5 -4 -4 -4 -2 -1 -2 -2 -2 -1 -0 -1 0 1 1 -1 -0 1 -1 -1 -2 -3 -3
-11 -9 -8 -10 -7 -6 -7 -11 -9 0 1 0 0 1 -0 0 -1 -1 -3 -2 -2 -4 -1 -3 -5 -6 -3 -2 -3 -3 -3 -3 -3 -2 -3 -0 -0 0 1 0 2 -1 -2 -4 -2 -2 -0
-10 -6 -9 -10 -7 -7 -7 -9 -12 -4 0 0 0 0 0 0 -3 -2 -2 -3 -5 -5 -4 -5 -6 -7 -4 -3 -0 -1 -0 -1 -2 -4 -3 -2 -0 1 2 2 -1 -1 -4 -4 1 2 -0
-6 -6 -8 -8 -6 -7 -7 -9 -11 -8 1 1 -0 0 1 1 -1 -5 -3 -4 -2 -3 -4 -6 -7 -5 -4 1 0 1 1 -1 -1 -0 -4 -3 -2 1 3 4 3 -3 -4 -4 -2 2 1
-7 -7 -7 -7 -6 -7 -9 -9 -8 -5 -2 -0 -0 -0 1 1 -1 -3 -3 -4 -5 -4 -2 -4 -5 -5 -4 1 1 1 1 -3 -0 -1 -0 1 1 3 3 3 1 -3 -4 -1 4 1 -0
-8 -8 -8 -7 -6 -7 -10 -10 -8 -4 -3 -0 -1 -0 0 0 -2 -1 0 -3 -5 -5 -2 -3 -0 1 1 2 1 0 1 0 -0 -2 -1 4 4 3 2 3 2 -0 -1 2 2 2 0
-7 -7 -7 -6 -8 -9 -8 -9 -7 -4 -1 -0 -1 -1 0 1 -1 -1 -2 -1 -1 -1 -2 -2 -0 1 1 1 1 1 2 1 1 2 -0 3 2 1 1 0 -0 -0 -0 1 1 -0 -1

GFSGBSN_850_dewp_168.txt.gz
Dewpoint
9 8 8 8 6 5 5 5 5 7 8 9 9 9 9 9 9 9 9 9 8 8 5 1 -1 -6 -6 -13 -17 -2 -0 -2 -0 -3 -4 -4 -4 -5 -4 -4 -4 -5 -6 -7 -7 -7 -13
10 9 9 10 9 9 9 9 9 9 9 9 8 8 9 9 10 9 9 8 9 7 3 2 -0 -8 -10 -7 -5 -1 -1 -1 -2 -1 -3 -3 -4 -5 -5 -4 -3 -5 -6 -7 -7 -7 -6
9 9 9 10 9 10 10 10 10 9 10 9 9 9 9 10 10 9 9 8 8 4 3 -0 -4 -9 -6 -6 -14 -6 -3 -2 -2 -0 -1 -1 -4 -4 -4 -4 -4 -4 -3 -4 -5 -5 -6
8 8 8 8 9 10 10 10 10 10 10 10 10 8 9 8 9 10 9 8 6 3 3 -4 -7 -9 -6 -7 -9 -8 -6 -5 -2 1 1 -3 -4 -5 -4 -3 -5 -4 -3 -1 -4 -6 -6
8 8 8 7 8 9 10 10 10 9 9 9 9 9 9 9 8 8 8 7 5 -0 -2 -7 -9 -2 -3 -5 -2 -0 -1 -1 -2 -2 0 -4 -4 -4 -4 -2 -2 -3 -2 -1 -2 -6 -5
7 7 8 8 8 9 8 9 6 5 5 5 5 6 5 6 5 3 -1 -6 -9 -7 -0 3 2 1 -5 -2 -6 -0 -2 -2 -3 -3 -3 -4 -4 -4 -3 -2 2 -0 -2 -4 -4 -7 -9
4 4 7 7 6 5 5 5 5 4 5 5 5 3 3 3 1 1 2 -3 -5 2 1 3 3 1 -1 -3 -2 -3 -3 -6 -3 -4 -3 -4 -2 -1 -2 -2 -2 -2 -1 -3 -4 -4 -4
4 3 2 3 2 2 2 2 1 2 2 3 4 4 4 3 2 2 1 -6 -4 0 2 -1 -1 0 -1 0 3 -2 -3 -4 -6 -3 -4 -4 -2 -3 -3 -3 -2 -1 -0 0 -2 -3 -4
3 4 5 3 2 2 2 2 2 1 -0 2 2 1 3 3 2 0 -5 -6 -5 -1 2 0 -3 -4 -9 -12 1 -1 -3 -4 -8 -7 -6 -3 -4 -6 -5 -5 -3 -1 0 -0 -2 -3 -4
3 3 2 3 3 2 1 1 3 3 1 2 3 2 2 2 2 -2 -1 -0 1 2 -3 -5 -7 -7 -9 -8 -7 -7 -6 -5 -5 -5 -5 -4 -6 -7 -6 -3 -3 -1 -4 -4 -3 -2 0
3 3 2 2 2 2 1 0 -0 2 2 2 2 2 2 0 -2 1 2 3 2 -3 -3 -10 -6 -6 -6 -9 -5 -5 -5 -6 -5 -4 -5 -3 -5 -5 -4 -3 -5 -3 -4 -3 -3 -2 -2
3 3 2 2 2 2 2 1 0 1 2 1 1 2 2 1 -3 3 2 2 -1 2 2 -3 -3 -3 -4 -5 -5 -3 -4 -3 -4 -4 -5 -5 -6 -7 -5 -6 -5 -5 -4 -3 -3 -2 1
1 2 2 3 2 2 1 0 0 1 2 1 1 1 2 0 -3 3 3 1 -0 4 -5 -6 -1 -3 0 0 -1 -2 -2 -2 -2 -2 -2 -4 -5 -6 -8 -6 -6 -5 -2 1 2 2 1
-0 1 1 2 3 3 2 1 0 0 0 1 1 1 1 0 0 2 2 2 1 -5 -7 -11 -11 -4 1 0 -0 -1 -2 -1 -3 -4 -4 -3 -5 -7 -7 -6 -5 -4 -2 2 4 3 -0
-2 -2 -1 1 2 3 4 2 1 1 0 0 0 0 1 0 2 2 0 2 -2 -2 -8 -8 -8 -6 -1 -1 -0 -2 -2 -2 -4 -4 -4 -5 -6 -10 -8 -7 -5 -5 -4 -4 -1 -3 -1
-4 -3 -3 -2 -0 1 2 3 2 1 1 0 -0 -0 -1 -1 3 3 2 -1 -2 -5 -11 -8 -6 -4 0 -1 -5 -1 -7 -10 -10 -10 -10 -8 -6 -8 -9 -9 -9 -9 -9 -6 -3 -1 -1
-3 -4 -5 -4 -4 -2 -0 1 2 2 2 2 1 -0 -3 -0 2 2 1 -1 -4 -8 -8 -6 -5 -5 -4 -6 -5 -6 -7 -11 -13 -11 -11 -10 -6 -6 -11 -8 -6 -7 -6 -5 -4 -1 -0
-5 -4 -6 -10 -8 -5 -4 -1 2 2 2 2 1 0 -0 -0 2 -0 1 -2 -6 -7 -8 -7 -8 -5 -4 -6 -7 -8 -6 -9 -12 -11 -8 -7 -5 -5 -8 -9 -9 -9 -7 -6 -1 -3 0
-5 -10 -12 -11 -12 -14 -14 -5 -0 2 2 1 0 0 1 1 1 1 -2 -2 -4 -4 -5 -8 -7 -9 -9 -9 -9 -8 -10 -9 -13 -7 -6 -7 -4 -0 -5 -7 -6 -7 -8 -8 -6 -3 -2
-3 -5 -12 -13 -12 -13 -14 -15 -6 0 1 1 -0 1 -1 2 0 -1 -1 -2 -1 -6 -6 -6 -8 -9 -8 -9 -9 -8 -8 -8 -9 -7 -8 -7 -4 -3 -2 -3 -4 -4 -6 -7 -6 -1 -2
-4 -5 -7 -13 -14 -7 -7 -11 -16 -3 1 1 -0 0 1 2 1 1 0 -1 -2 -1 -4 -7 -7 -6 -5 -5 -7 -6 -8 -8 -7 -8 -7 -7 -5 -4 -4 -5 -5 -5 -6 -5 -2 -2 -2
-8 -7 -10 -13 -14 -7 -5 -9 -12 -10 -0 1 -0 0 1 0 -0 1 1 2 -0 -2 -4 -5 -5 -5 -5 -4 -6 -7 -4 -3 -6 -2 -5 -4 -3 -4 -4 -3 -2 -1 -2 -2 -2 -3 -3
-9 -6 -6 -9 -13 -15 -9 -7 -11 -11 -1 0 -0 -1 1 -0 -1 1 0 0 -0 -2 -2 -2 -3 -4 -2 -2 -5 -4 -3 -2 -2 -1 -1 -1 -0 1 1 -1 -0 0 -1 -1 -2 -3 -2
-12 -15 -17 -17 -16 -14 -7 -7 -8 -14 -3 -1 -0 0 0 1 -0 -1 -1 -2 -2 -1 -1 -1 -1 -1 -3 -3 -3 -3 -3 -3 -2 -2 -2 -0 -0 0 2 -1 2 -3 -3 -2 -1 -1 -1
-12 -15 -15 -15 -14 -12 -8 -7 -8 -13 -7 -0 -0 0 0 1 -0 -2 -2 -2 -3 -2 -2 -1 -0 -2 -4 -3 -2 -2 -1 -2 -2 -2 -2 -2 -0 0 1 0 -3 -4 -5 -5 -2 -3 -1
-11 -15 -15 -14 -6 -8 -8 -7 -8 -10 -12 -3 -0 0 0 -0 0 -2 -2 -2 -2 -3 -4 -5 -4 -4 -3 -0 -0 0 0 -0 -1 -0 -2 -4 -2 -1 2 3 3 -1 -4 -4 -2 1 1
-7 -13 -13 -11 -9 -10 -9 -7 -8 -10 -10 -6 -1 -0 -0 -0 -1 -0 -0 -3 -3 -3 -2 -3 -4 -3 -3 -1 1 1 1 -2 0 -1 -0 1 0 1 1 2 2 -2 -3 -2 1 -1 1
-11 -11 -10 -9 -8 -8 -7 -7 -8 -10 -9 -6 -4 -0 0 -0 -1 -0 0 -1 -4 -4 -1 -4 -1 -1 -0 -0 1 1 0 0 -1 -3 -1 1 2 3 2 4 3 -3 -1 1 -1 1 -1
-10 -10 -8 -8 -8 -8 -7 -7 -9 -10 -9 -5 -3 -1 -0 -0 0 0 -0 0 -0 -2 -3 -2 -3 1 -1 0 0 -0 1 1 1 3 0 3 2 2 2 1 -2 1 0 -0 1 0 -0

GFSGBSN_850_dewp_171.txt.gz
Dewpoint
8 7 6 4 3 2 3 1 1 2 3 4 6 7 7 7 8 8 8 8 7 8 8 6 3 3 1 -2 -2 -9 -3 -1 -2 -1 -3 -4 -5 -5 -4 -4 -4 -5 -6 -6 -7 -7 -12
10 10 9 9 9 9 9 9 9 8 7 7 7 7 7 8 8 8 7 7 7 8 8 5 3 3 -3 -3 -4 -5 -3 -3 -3 -3 -2 -2 -3 -4 -4 -4 -3 -4 -4 -4 -4 -6 -7
9 9 9 10 10 10 10 10 10 10 10 9 9 9 10 9 9 9 8 8 7 8 6 4 3 -1 -4 -3 -7 -10 -10 -4 -2 -2 0 -2 -3 -4 -4 -3 -3 -4 -3 -4 -4 -4 -5
8 8 8 9 9 10 9 10 10 10 10 9 10 9 9 9 8 8 8 9 9 7 6 0 -1 -5 -6 -4 -5 -4 -7 -6 -6 -4 -0 0 -4 -4 -4 -3 -4 -4 -4 -2 -4 -5 -6
7 7 7 7 8 9 9 10 10 10 10 10 9 9 9 9 8 8 8 8 7 5 -2 -4 -3 -3 -4 -6 -6 -3 -1 -2 -3 -2 -2 -0 -4 -4 -4 -2 -1 -2 -1 -2 -3 -6 -6
7 7 7 7 7 8 9 9 9 9 9 9 8 8 7 7 7 7 6 5 1 -5 -5 1 3 1 -2 -2 -2 -4 -1 -2 -2 -3 -3 -3 -4 -4 -3 -1 1 0 -1 -2 -3 -6 -8
6 7 7 7 8 8 8 8 7 6 5 5 5 5 5 4 3 1 1 -2 -5 -1 1 -0 2 0 -2 -2 -2 -3 -3 -2 -5 -3 -3 -4 -2 -1 -2 -2 -2 -2 -1 -1 -3 -5 -4
4 4 4 5 5 6 6 5 5 4 3 3 2 3 3 3 3 4 4 -4 -3 -0 -0 -2 -3 -2 -3 -1 -0 -3 -1 -1 -4 -3 -4 -4 -2 -3 -3 -3 -2 -1 -0 0 -2 -4 -4
3 4 4 3 2 2 2 2 1 1 1 -0 0 -1 1 0 2 1 2 -2 -1 -5 -1 -0 -4 -2 -4 -5 2 -3 -2 -3 -6 -5 -5 -2 -4 -5 -5 -5 -4 -3 -0 0 -1 -3 -4
3 3 4 4 4 3 2 1 1 2 2 1 1 2 2 3 2 2 -0 -1 0 0 -2 -5 -7 -5 -4 -5 -6 -9 -5 -2 -5 -5 -6 -5 -6 -5 -6 -5 -5 -1 -3 -4 -3 -3 0
3 3 3 3 3 3 2 1 0 -0 2 2 2 2 2 3 -1 1 2 1 2 -5 1 -7 -7 -5 -6 -8 -5 -4 -4 -3 -3 -4 -4 -2 -5 -5 -4 -4 -4 -2 -4 -3 -3 -3 -2
3 3 3 3 2 2 2 2 1 0 0 2 1 1 2 2 1 2 3 2 1 -1 -3 -6 -4 -4 -5 -6 -5 -3 -4 -5 -5 -5 -4 -4 -6 -6 -5 -6 -5 -5 -4 -3 -2 -2 1
2 2 3 3 2 2 2 1 1 0 1 2 1 1 2 1 -1 2 2 2 -2 -2 -6 -4 -2 -3 -1 -2 -2 -3 -2 -2 -2 -1 -1 -4 -4 -6 -6 -5 -6 -5 -3 1 -1 1 0
0 1 2 2 3 3 2 2 1 0 0 0 1 1 1 0 -1 1 2 -2 -0 -2 -5 -9 -10 -9 -2 0 1 -1 -1 -0 -3 -4 -3 -1 -2 -5 -6 -5 -4 -3 -3 1 2 3 1
-1 -0 1 2 2 3 3 2 1 1 0 0 0 0 -0 0 -1 2 2 3 -1 -3 -5 -8 -9 -8 -4 -1 -0 -0 -0 -1 -3 -4 -2 -4 -5 -9 -8 -7 -6 -3 -1 -3 -1 -2 -0
-3 -2 -1 -0 1 2 3 3 3 1 1 0 0 0 -1 -2 -1 3 2 2 -1 -3 -7 -8 -8 -8 -2 -1 0 -0 -1 -4 -3 -5 -6 -6 -5 -8 -10 -9 -9 -6 -6 -4 -2 -1 -0
-5 -6 -3 -2 -1 -0 1 3 3 2 1 1 1 -0 -2 -2 0 3 3 0 -2 -4 -6 -6 -6 -5 -6 -5 -5 -5 -5 -8 -10 -10 -9 -9 -7 -8 -10 -8 -6 -7 -6 -5 -4 -2 -1
-3 -3 -4 -4 -3 -3 -1 0 2 2 2 1 1 1 -0 0 1 -0 0 -1 -3 -6 -8 -7 -6 -6 -5 -6 -7 -8 -6 -5 -9 -11 -9 -8 -6 -6 -8 -10 -9 -9 -8 -6 -1 -4 -0
-4 -3 -3 -6 -9 -6 -4 -3 -0 1 2 1 0 0 1 1 -0 -0 -1 -1 -2 -4 -5 -7 -7 -7 -8 -9 -6 -6 -8 -9 -10 -9 -8 -9 -5 -1 -7 -10 -6 -6 -8 -6 -5 -3 -3
-6 -6 -10 -12 -13 -14 -14 -8 -4 1 1 2 1 0 1 2 -0 -2 -1 -1 -1 -3 -5 -6 -5 -6 -8 -8 -8 -7 -7 -7 -10 -8 -8 -7 -4 -5 -2 -6 -4 -4 -6 -7 -5 -1 -2
-3 -3 -6 -13 -16 -18 -18 -18 -16 -2 1 1 0 -0 -0 -1 1 1 -1 -1 -2 -2 -4 -5 -9 -7 -6 -4 -6 -6 -8 -8 -6 -9 -6 -7 -6 -5 -3 -4 -4 -5 -6 -6 -4 -4 -2
-4 -5 -6 -9 -12 -14 -12 -11 -13 -15 -1 1 -1 -0 0 0 1 1 1 2 -1 -1 -2 -3 -3 -6 -6 -5 -6 -7 -4 -4 -6 -3 -5 -5 -6 -5 -5 -5 -3 -1 -2 -2 -1 -1 -1
-6 -6 -5 -6 -9 -14 -13 -9 -11 -13 -6 -0 -0 -1 1 -1 -1 1 -0 0 -1 -1 -1 -3 -2 -1 -3 -3 -5 -6 -5 -3 -3 -1 -0 -0 -2 1 -3 -2 -1 1 -1 -2 -3 -3 -2
-5 -7 -9 -7 -10 -11 -14 -15 -12 -12 -9 -1 -0 -1 0 -1 -0 -0 -1 -1 -0 -1 -0 -2 -1 -1 -2 -2 -2 -2 -3 -2 -2 -2 -2 -0 -0 1 2 2 3 -2 -4 -3 -1 -2 -2
-7 -11 -15 -17 -19 -18 -17 -17 -11 -11 -10 -5 -1 -0 -0 -1 -0 -1 -1 -1 -2 -1 -1 -2 -1 -2 -2 -2 1 1 -1 -2 -3 -2 -2 -1 -0 1 1 2 -1 -4 -8 -5 -2 -2 -3
-11 -13 -16 -19 -20 -19 -17 -19 -13 -8 -8 -8 -6 -2 -1 -0 -0 -1 -2 -1 -1 -2 -2 -2 -3 -2 -2 0 1 2 0 -2 -2 -2 -3 -3 -1 -0 2 2 -0 -1 -4 -3 -4 0 -2
-6 -14 -16 -19 -20 -18 -15 -16 -15 -9 -6 -6 -6 -4 -0 -1 -0 -0 1 0 -2 -2 -3 -4 -4 -2 0 0 1 2 0 -2 -1 -1 -3 1 1 1 1 0 -0 -2 -3 -3 2 -1 -0
-9 -12 -15 -18 -18 -15 -8 -11 -13 -8 -6 -6 -6 -8 -2 -1 -1 -1 0 0 -1 -3 -2 -3 -2 -1 -1 1 1 1 1 -1 -2 -4 -2 0 1 2 1 3 2 -3 -2 -0 -2 -0 0
-11 -13 -15 -15 -14 -12 -9 -10 -10 -7 -6 -6 -6 -8 -5 -3 -1 -0 -1 -1 0 0 -3 -3 -1 -2 -2 -0 0 0 0 0 0 1 -0 0 1 3 1 0 -1 -1 0 -1 -1 -0 -1

GFSGBSN_850_dewp_174.txt.gz
Dewpoint
5 4 2 1 1 1 1 1 1 1 1 3 5 5 6 7 6 6 7 8 7 7 7 7 7 5 4 1 1 -2 -7 -3 -3 -4 -3 -2 -4 -4 -4 -4 -4 -4 -5 -5 -4 -4 -6
9 9 9 9 8 8 6 7 7 7 7 7 8 8 8 8 8 8 8 7 8 7 8 7 6 5 3 -1 0 -4 -7 -9 -3 -3 -4 -1 -2 -4 -4 -4 -3 -4 -4 -4 -4 -5 -7
10 10 9 9 9 9 9 10 9 10 10 10 9 9 9 9 9 8 8 8 7 7 8 7 6 1 1 2 -2 -4 -5 -6 -10 -3 -3 0 -1 -4 -4 -3 -3 -3 -4 -5 -5 -4 -4
9 9 9 9 9 9 10 10 10 9 9 9 9 9 9 9 8 7 8 8 7 8 7 6 2 -3 0 2 -3 -3 -2 -5 -7 -5 -4 -0 -1 -4 -4 -4 -3 -4 -4 -1 -5 -5 -6
8 8 8 8 8 8 9 9 9 10 9 9 9 9 9 8 8 7 7 7 7 6 5 -1 -5 -2 1 -1 -4 -4 -2 -2 -3 -3 -2 -2 -2 -4 -4 -2 0 -1 0 -2 -3 -6 -7
7 7 7 6 7 7 7 8 8 8 8 8 8 8 7 7 7 5 3 3 1 2 -0 -0 2 3 1 -1 -2 -4 -3 -2 -3 -4 -3 -2 -4 -3 -3 -1 -4 -1 -1 -1 -1 -4 -5
5 6 6 7 7 7 7 8 8 8 7 6 5 5 5 4 4 4 3 2 -1 0 -0 -0 0 1 -0 -0 -0 -1 -2 -3 -4 -4 -3 -4 -2 -1 -3 -2 -2 -2 -1 -0 -2 -3 -4
4 5 6 7 7 7 7 6 7 7 6 6 6 5 2 3 3 2 3 -0 -1 0 1 -1 -2 0 0 -1 -1 -1 -2 -0 -3 -3 -4 -3 -1 -3 -4 -3 -2 -1 -1 -1 -2 -2 -4
2 3 4 3 4 5 5 5 4 4 3 3 2 1 1 1 1 -0 1 -0 1 0 -1 -4 -3 -1 -3 -2 0 -2 -3 -1 -4 -4 -3 -3 -5 -5 -4 -4 -3 -4 -2 -2 -1 -3 -4
2 3 4 3 3 2 2 2 2 1 1 1 0 0 1 1 1 1 1 2 1 -0 -2 -3 -7 -5 -4 -3 -3 -7 -3 -3 -6 -2 -5 -5 -6 -5 -5 -5 -6 -4 -5 -2 -3 -3 -0
2 3 4 4 4 4 3 2 1 0 -0 1 1 0 1 1 1 -1 2 2 1 -5 1 -6 -8 -4 -6 -7 -7 -3 -3 -2 -2 -4 -5 -3 -4 -5 -4 -4 -6 -4 -3 -3 -3 -3 -2
3 3 3 3 3 3 3 2 2 0 -1 -0 1 0 -0 1 1 2 2 2 -1 -2 -2 -7 -4 -3 -6 -6 -6 -3 -3 -5 -5 -4 -4 -4 -6 -6 -5 -6 -5 -5 -4 -3 -2 -2 1
2 3 3 3 3 2 2 2 1 1 0 0 1 -1 -1 1 1 0 2 0 -3 -2 -7 -6 -6 -8 -5 -1 -3 -4 -2 -2 -2 -1 -1 -3 -4 -5 -6 -4 -6 -5 -3 1 0 1 2
2 2 3 3 3 3 2 2 2 1 0 0 1 0 -1 -1 0 -0 2 -0 0 -3 -5 -7 -9 -9 -8 -2 -1 -1 -2 -0 -3 -4 -3 -2 -1 -4 -6 -4 -4 -3 -3 1 2 1 -1
1 1 2 2 3 3 3 2 2 1 0 0 0 -0 -1 -2 -0 0 2 1 1 -2 -6 -7 -8 -9 -4 -3 -1 -0 -0 -1 -2 -4 -1 -2 -4 -9 -8 -7 -5 -3 -1 -4 -1 -2 -0
-1 -0 0 1 2 3 3 3 2 1 1 0 -0 0 -1 -2 0 2 3 2 0 -4 -6 -7 -8 -9 -5 -4 -2 -1 -1 -3 -3 -4 -5 -4 -4 -8 -10 -9 -9 -5 -5 -2 -2 -0 0
-2 -2 -2 -1 0 1 2 3 3 2 2 1 1 0 -1 -2 -1 2 3 1 -2 -3 -2 -6 -6 -5 -6 -6 -8 -5 -4 -5 -7 -9 -6 -6 -6 -6 -10 -9 -7 -7 -5 -5 -3 -2 -0
-5 -4 -5 -4 -2 -1 0 1 2 2 2 2 2 1 -1 -1 -0 1 1 -1 -2 -4 -3 -7 -7 -6 -5 -6 -6 -6 -3 -6 -7 -7 -6 -7 -6 -6 -8 -9 -8 -9 -8 -5 -1 1 1
-3 -3 -3 -4 -3 -2 -2 -1 1 2 2 2 1 0 1 0 -2 -1 -2 -1 -2 -3 -5 -5 -5 -5 -7 -7 -6 -5 -7 -8 -9 -5 -2 -4 -3 -1 -7 -10 -6 -5 -6 -6 -4 -3 -3
-3 -3 -3 -3 -4 -4 -3 -3 -1 1 1 1 1 1 0 2 -0 -3 -2 -1 -1 -3 -3 -3 -5 -7 -6 -7 -9 -7 -7 -7 -7 -8 -7 -5 -3 -3 -2 -5 -4 -5 -5 -6 -6 -1 -2
-6 -6 -6 -7 -6 -9 -10 -5 -3 0 1 1 1 0 -1 1 1 -0 -2 -2 -1 -2 -4 -4 -5 -6 -7 -5 -5 -6 -8 -8 -7 -6 -4 -5 -2 -3 -5 -6 -3 -5 -5 -5 -4 -5 -3
-5 -4 -4 -7 -11 -12 -14 -14 -12 -4 0 1 -0 -0 0 0 1 1 1 1 -1 -1 -3 -3 -3 -3 -3 -5 -7 -7 -5 -6 -4 -3 -5 -4 -3 -5 -4 -5 -3 -3 -5 -4 -3 -3 -2
-5 -4 -4 -6 -10 -13 -14 -11 -13 -13 -2 0 0 -0 -1 -1 -1 1 -0 0 -0 -1 -2 -3 -2 -1 -1 -2 -2 -2 -4 -7 -5 -2 -1 -1 -2 -1 -2 -4 -2 1 -1 -2 -2 -1 -1
-5 -6 -7 -6 -9 -14 -16 -13 -12 -10 -10 -2 -1 -0 -1 -1 -0 -1 -1 -1 -1 -1 -0 -2 -2 -1 -2 -2 -1 -1 -2 -2 -2 -1 -1 -0 0 0 -0 0 3 -2 -5 -4 -1 -2 -2
-6 -5 -7 -9 -6 -14 -19 -18 -14 -10 -7 -7 -1 -1 -1 -2 -2 -2 -1 -1 -1 -1 -1 -1 -1 -1 -2 -0 1 2 1 -2 -2 -2 -1 -1 -1 -1 1 2 -2 -3 -6 -6 -4 -2 -4
-7 -11 -12 -15 -17 -20 -21 -21 -19 -13 -6 -5 -6 -1 -1 -1 -2 -3 -3 -2 -1 -1 -2 -2 -3 -3 -1 1 2 2 1 1 -1 -2 -2 -3 -1 0 2 2 -0 -5 -5 -3 -4 -0 -4
-8 -11 -14 -16 -19 -21 -20 -20 -17 -14 -6 -5 -6 -8 -3 -2 -3 -2 1 -0 -1 -1 -2 -4 -2 -0 -1 1 2 1 2 -2 -1 -2 -4 1 1 2 2 2 0 -4 -6 -3 -0 -2 -2
-7 -9 -12 -16 -18 -20 -20 -20 -13 -7 -7 -5 -3 -7 -5 -3 -1 -1 -2 -0 1 1 0 -2 -1 -2 0 1 2 1 2 -1 -2 -3 -3 -2 1 1 1 2 2 -2 -3 -1 -2 -1 -0
-5 -8 -11 -15 -16 -18 -18 -17 -8 -6 -8 -5 -3 -6 -7 -3 -4 -1 -1 -1 0 -0 1 0 -0 -2 -2 -1 -0 0 1 -1 -1 0 -2 -2 -1 1 1 0 0 0 0 0 0 -0 -1